TimeEDT,TemperatureF,Dew PointF,Humidity,Sea Level PressureIn,VisibilityMPH,Wind Direction,Wind SpeedMPH,Gust SpeedMPH,PrecipitationIn,Events,Conditions,WindDirDegrees,DateUTC
12:53 AM,53.1,26.1,35,29.91,10.0,Calm,Calm,-,N/A,,Scattered Clouds,0,2014-03-09 05:53:00
1:53 AM,48.9,27.0,43,29.92,10.0,Calm,Calm,-,N/A,,Scattered Clouds,0,2014-03-09 06:53:00
3:53 AM,48.9,27.0,43,29.91,10.0,Calm,Calm,-,N/A,,Mostly Cloudy,0,2014-03-09 07:53:00
4:53 AM,46.9,28.9,50,29.92,10.0,Calm,Calm,-,N/A,,Overcast,0,2014-03-09 08:53:00
5:53 AM,46.0,28.9,51,29.93,10.0,NNE,3.5,-,N/A,,Overcast,20,2014-03-09 09:53:00
6:53 AM,51.1,32.0,48,29.96,10.0,WNW,5.8,-,N/A,,Mostly Cloudy,300,2014-03-09 10:53:00
7:53 AM,46.9,32.0,56,30.00,10.0,Calm,Calm,-,N/A,,Overcast,0,2014-03-09 11:53:00
8:53 AM,48.0,34.0,58,30.03,10.0,Variable,4.6,-,N/A,,Scattered Clouds,0,2014-03-09 12:53:00
9:53 AM,48.9,35.1,59,30.04,10.0,NE,4.6,-,N/A,,Partly Cloudy,40,2014-03-09 13:53:00
10:53 AM,50.0,34.0,54,30.06,10.0,ENE,9.2,-,N/A,,Partly Cloudy,60,2014-03-09 14:53:00
11:53 AM,53.1,32.0,45,30.06,10.0,SW,4.6,-,N/A,,Scattered Clouds,220,2014-03-09 15:53:00
12:53 PM,55.9,26.1,32,30.05,10.0,Variable,4.6,-,N/A,,Clear,0,2014-03-09 16:53:00
1:53 PM,57.0,23.0,27,30.03,10.0,Variable,6.9,16.1,N/A,,Clear,0,2014-03-09 17:53:00
2:53 PM,57.9,21.0,24,30.01,10.0,West,8.1,-,N/A,,Clear,280,2014-03-09 18:53:00
3:53 PM,59.0,21.0,23,30.00,10.0,NE,8.1,-,N/A,,Clear,40,2014-03-09 19:53:00
4:53 PM,59.0,21.0,23,29.98,10.0,North,11.5,-,N/A,,Clear,350,2014-03-09 20:53:00
5:53 PM,59.0,24.1,26,29.96,10.0,Variable,6.9,-,N/A,,Clear,0,2014-03-09 21:53:00
6:53 PM,57.0,23.0,27,29.97,10.0,Calm,Calm,-,N/A,,Clear,0,2014-03-09 22:53:00
7:53 PM,51.1,26.1,38,29.98,10.0,Calm,Calm,-,N/A,,Clear,0,2014-03-09 23:53:00
8:53 PM,50.0,24.1,36,30.01,10.0,Calm,Calm,-,N/A,,Clear,0,2014-03-10 00:53:00
9:53 PM,48.0,26.1,42,30.03,10.0,NNW,3.5,-,N/A,,Clear,340,2014-03-10 01:53:00
10:53 PM,44.1,25.0,47,30.02,10.0,Calm,Calm,-,N/A,,Clear,0,2014-03-10 02:53:00
11:53 PM,42.1,24.1,49,30.01,10.0,North,3.5,-,N/A,,Clear,360,2014-03-10 03:53:00
12:53 AM,42.1,21.9,45,30.00,10.0,North,3.5,-,N/A,,Clear,360,2014-03-10 04:53:00